Regional Weather Roundup
Issued by NWS Cleveland, OH

Home | Current Version | Previous Version | Text Only | Print | Product List | Glossary Off
Versions: 1 2 3 4 5 6 7 8 9 10 11 12 13 14 15 16 17 18 19 20 21 22 23 24 25 26 27 28 29 30 31 32 33 34 35 36 37 38 39 40 41 42 43 44 45 46 47 48 49 50

000
ASUS41 KCLE 031600
RWRCLE
OHIO REGIONAL WEATHER ROUNDUP
NATIONAL WEATHER SERVICE WILMINGTON, OH
1200 PM EDT TUE MAY 03 2016

NOTE: "FAIR" INDICATES FEW OR NO CLOUDS BELOW 12,000 FEET WITH NO
SIGNIFICANT WEATHER AND/OR OBSTRUCTIONS TO VISIBILITY.

OHZ001>008-015>018-024>027-034-035-043-044-031700-
   NORTHWEST OHIO

CITY           SKY/WX    TMP DP  RH WIND       PRES   REMARKS
DEFIANCE       CLOUDY    56  43  61 CALM      29.93F
FINDLAY        CLOUDY    58  43  57 W7        29.91F
TOLEDO EXPRESS CLOUDY    57  41  55 NW8       29.91F
TOLEDO EXEC    CLOUDY    57  43  59 SW6       29.92F
LIMA           CLOUDY    53  46  77 NW7       29.92F
$$

OHZ009>014-019>023-028>033-038-089-031700-
   NORTHEAST OHIO

CITY           SKY/WX    TMP DP  RH WIND       PRES   REMARKS
CLE-HOPKINS    FAIR      55  38  52 N8        29.93S
CLE-LAKEFRONT  FAIR      51  44  77 NW6       29.91S
CUY CO. ARPT   PTSUNNY   54  45  71 NW9       29.92S
LORAIN-ELYRIA  CLOUDY    54  40  59 N6        29.92S
ASHTABULA      CLOUDY    50  42  74 VRB6      29.90F
AKRON-CANTON   PTSUNNY   57  43  59 N8        29.89S
WOOSTER        CLOUDY    54  45  71 NW6       29.91S
MANSFIELD      CLOUDY    53  45  74 MISG      29.91S
YOUNGSTOWN     CLOUDY    51  41  68 VRB5      29.88F
$$

OHZ042-051>053-060>062-070>072-077>081-031700-
  SOUTHWEST OHIO

CITY           SKY/WX    TMP DP  RH WIND       PRES   REMARKS
CINC-COVINGTON CLOUDY    57  51  80 NW3       29.91S
CINC-LUNKEN    CLOUDY    57  51  80 CALM      29.92S
HAMILTON       CLOUDY    56  48  74 N6        29.93S
DAYTON         NOT AVBL
WRIGHT-PAT AFB NOT AVBL
DAYTON GENERAL CLOUDY    54  45  71 NW5       29.91S
WILMINGTON     CLOUDY    53  47  79 NW6       29.91R
$$

OHZ036-037-039>041-045>050-054>059-063>069-073>076-082>088-031700-
  CENTRAL AND SOUTHEAST OHIO

CITY           SKY/WX    TMP DP  RH WIND       PRES   REMARKS
COLUMBUS       CLOUDY    54  44  69 N7        29.89F
OSU AIRPORT    CLOUDY    56  44  64 E6        29.89F
BOLTON FIELD   CLOUDY    55  46  71 N6        29.90F
RICKENBACK AFB NOT AVBL
NEWARK         CLOUDY    58  43  57 VRB5      29.89F
MARION         PTSUNNY   56  45  66 N9        29.92S
LANCASTER      CLOUDY    54  45  71 NE5       29.90F
ZANESVILLE     CLOUDY    56  44  64 CALM      29.89F
NEW PHILLY     CLOUDY    57  44  62 VRB5      29.89F
$$




USA.gov is the U.S. government's official web portal to all federal, state and local government web resources and services.